sat.trackr.live / text

‹ back to catalog

ONEWEB-0464

NORAD 51651 · 2022-012AF

PAYLOAD ACTIVE UNKNOWN

§ Identity

Operator
Country
UK
Launch date
2022-02-10
Launch site
FRGUI
Launch vehicle
Mass (kg)
RCS (m²)

Purposes: comms

External: N2YO · Heavens-Above · Gunter

§ Orbital elements

Epoch: 2026-05-25T03:00:57.214080Z

Period
109.89 min
Inclination
87.8854°
Eccentricity
0.0001895
Mean motion
13.10374070 rev/d
Perigee alt
1,220.3 km
Apogee alt
1,223.2 km
Semi-major
7,599.8 km
B*
-1.8031e-3
RAAN
40.8723°
Arg perigee
71.6102°
Mean anomaly
288.5232°
Rev number
20,630

§ Raw data

ONEWEB-04641 51651U 22012AF  26145.12566220 -.00000617  00000+0 -18031-2 0  99972 51651  87.8854  40.8723 0001895  71.6102 288.5232 13.10374070206301

JSON: /api/v1/satellites/51651 · /tle

For live sub-satellite position, see the globe view (requires WebGL).

§ Visibility from observer

Set your observer location to see the next 7 days of passes ≥ 10°. The values pass through the URL so the page stays shareable.

No JS? Fill the form by hand. The geolocation button needs JavaScript.